OK1PHU-6 Weather Reports


time (UTC)temp
C
wind
direction
speed
KPH
gust
KPH
rain 1hr
cm
rain 24hr
cm
rain mn
cm
humidity
%
barometer
mb
20260502195734 -17 135 3.2 6.4 0.00 0.00 0.00 1019.9
20260502194649 -17 135 3.2 4.8 0.00 0.00 0.00 1019.9
20260502193608 -17 135 3.2 4.8 0.00 0.00 0.00 1019.8
20260502192524 -17 135 3.2 3.2 0.00 0.00 0.00 1019.9
20260502191439 -17 90 3.2 4.8 0.00 0.00 0.00 1019.7
20260502190355 -17 90 3.2 4.8 0.00 0.00 0.00 1019.7
20260502185309 -17 90 1.6 4.8 0.00 0.00 0.00 1019.5
20260502184227 -17 113 3.2 4.8 0.00 0.00 0.00 1019.3
20260502183140 -17 135 3.2 3.2 0.00 0.00 0.00 1018.8
20260502182057 -17 135 3.2 4.8 0.00 0.00 0.00 1018.5
20260502181013 -17 135 3.2 6.4 0.00 0.00 0.00 1018.2
20260502163325 -17 135 6.4 8.0 0.00 0.00 0.00 1018.1
20260502162239 -17 135 1.6 9.7 0.00 0.00 0.00 1018.2
20260502161155 -17 90 6.4 9.7 0.00 0.00 0.00 1018.3
20260502160110 -17 315 1.6 11.3 0.00 0.00 0.00 1018.4
20260502151816 -17 90 3.2 8.0 0.00 0.00 0.00 1018.9
20260502150732 -17 23 3.2 8.0 0.00 0.00 0.00 1018.9
20260502123658 -17 23 1.6 8.0 0.00 0.00 0.00 1020.6
20260502122616 -17 0 4.8 8.0 0.00 0.00 0.00 1020.6
20260502121533 -17 135 1.6 9.7 0.00 0.00 0.00 1020.9
20260502120450 -17 0 3.2 11.3 0.00 0.00 0.00 1020.9
20260502115406 -17 90 6.4 9.7 0.00 0.00 0.00 1021.0
20260502114323 -17 45 4.8 8.0 0.00 0.00 0.00 1021.2
20260502113238 -17 45 1.6 14.5 0.00 0.00 0.00 1021.3
20260502112153 -17 135 14.5 16.1 0.00 0.00 0.00 1021.6
20260502111107 -17 90 4.8 9.7 0.00 0.00 0.00 1021.7
20260502110025 -17 45 3.2 8.0 0.00 0.00 0.00 1022.0
20260502104936 -17 45 4.8 9.7 0.00 0.00 0.00 1022.2
20260502103852 -17 90 6.4 9.7 0.00 0.00 0.00 1022.2
20260502102808 -17 180 3.2 6.4 0.00 0.00 0.00 1022.4
20260502101725 -17 45 6.4 12.9 0.00 0.00 0.00 1022.5
20260502100643 -17 90 3.2 9.7 0.00 0.00 0.00 1022.7
20260502091251 -17 315 3.2 8.0 0.00 0.00 0.00 1023.5
20260502090208 -17 315 4.8 8.0 0.00 0.00 0.00 1023.6
20260502071448 -17 225 3.2 6.4 0.00 0.00 0.00 1024.6
20260502070400 -17 90 1.6 3.2 0.00 0.00 0.00 1024.7
20260502065316 -17 45 0.0 3.2 0.00 0.00 0.00 1024.9
20260502064230 -17 45 1.6 4.8 0.00 0.00 0.00 1025.1
20260502063142 -17 180 1.6 8.0 0.00 0.00 0.00 1025.3
20260502062058 -17 225 0.0 3.2 0.00 0.00 0.00 1025.5
20260502061015 -17 0 1.6 1.6 0.00 0.00 0.00 1025.7
20260502055931 -17 315 0.0 1.6 0.00 0.00 0.00 1025.9
20260502054847 -17 135 0.0 0.0 0.00 0.00 0.00 1026.2
20260502053804 -17 0 0.0 0.0 0.00 0.00 0.00 1026.4
20260502052720 -17 45 0.0 0.0 0.00 0.00 0.00 1026.5
20260501225457 -17 135 0.0 0.0 0.00 0.00 0.00 1027.0
20260501224412 -17 225 0.0 0.0 0.00 0.00 0.00 1027.0
20260501223328 -17 135 0.0 0.0 0.00 0.00 0.00 1027.1
20260501222245 -17 135 0.0 0.0 0.00 0.00 0.00 1027.1
20260501221159 -17 135 0.0 1.6 0.00 0.00 0.00 1027.1
20260501220113 -17 135 0.0 4.8 0.00 0.00 0.00 1027.1
20260501215030 -17 135 3.2 3.2 0.00 0.00 0.00 1026.9
20260501213944 -17 135 0.0 0.0 0.00 0.00 0.00 1026.9
20260501212900 -17 135 0.0 0.0 0.00 0.00 0.00 1026.9
20260501211816 -17 135 0.0 0.0 0.00 0.00 0.00 1026.9
20260501210727 -17 270 0.0 0.0 0.00 0.00 0.00 1027.0
20260501205643 -17 225 0.0 3.2 0.00 0.00 0.00 1027.0
20260501204601 -17 135 1.6 3.2 0.00 0.00 0.00 1027.0
20260501203516 -17 135 1.6 3.2 0.00 0.00 0.00 1027.0
20260501202435 -17 135 3.2 4.8 0.00 0.00 0.00 1026.9
20260501201347 -17 135 0.0 0.0 0.00 0.00 0.00 1026.9
20260501200304 -17 135 0.0 1.6 0.00 0.00 0.00 1026.9